Location: San Antonio
(29.4240°N, 98.4930°W)
Time: 17:02:51
(UTC-05:00)

BlueWalker 3 - Pass Details

Date: 23 June 2024
Orbit: 480 x 492 km, 53.2° (Epoch: 11 July)

Event Time Altitude Azimuth Distance (km) Brightness Sun altitude
Rises 05:35:21 0° 301° (WNW) 2,531 5.3 -12.0°
Reaches altitude 10° 05:37:55 10° 284° (WNW) 1,651 4.2 -11.5°
Maximum altitude 05:40:41 20° 236° (SW) 1,161 3.1 -11.0°
Drops below altitude 10° 05:43:27 10° 187° (S) 1,648 4.2 -10.5°
Sets 05:46:01 0° 170° (S) 2,526 5.3 -10.1°
